FW7500 Weather Reports


Display with metric or nautical units.
time (UTC)temp
F
wind
direction
speed
MPH
gust
MPH
rain 1hr
in
rain 24hr
in
rain mn
in
humidity
%
barometer
mb
20260506230058 57 351 3.0 6.0 0.00 0.50 0.42 55 1013.4
20260506224606 57 359 1.0 7.0 0.00 0.50 0.42 56 1013.4
20260506223057 58 1 2.0 7.0 0.00 0.50 0.42 56 1013.5
20260506221552 58 360 2.0 5.0 0.00 0.50 0.42 55 1013.6
20260506214551 58 359 3.0 10.0 0.00 0.54 0.42 58 1013.9
20260506213053 59 13 3.0 8.0 0.00 0.54 0.42 55 1013.6
20260506211554 59 273 3.0 6.0 0.00 0.54 0.42 54 1013.5
20260506210046 60 342 2.0 6.0 0.00 0.54 0.42 53 1013.4
20260506204549 60 21 4.0 6.0 0.00 0.72 0.42 57 1013.3
20260506203057 59 30 5.0 8.0 0.00 0.72 0.42 51 1013.4
20260506201552 60 309 2.0 7.0 0.00 0.72 0.42 51 1013.6
20260506200050 61 358 2.0 7.0 0.00 0.72 0.42 52 1013.4
20260506194552 61 343 4.0 8.0 0.00 0.72 0.42 55 1013.6
20260506193053 61 360 1.0 9.0 0.00 0.72 0.42 53 1013.6
20260506191547 60 52 5.0 10.0 0.00 0.72 0.42 55 1013.4
20260506190045 60 38 2.0 6.0 0.00 0.72 0.42 54 1013.3
20260506184550 59 18 4.0 9.0 0.00 0.72 0.42 58 1013.4
20260506183058 59 38 6.0 11.0 0.00 0.72 0.42 56 1013.3
20260506181620 58 329 3.0 15.0 0.00 0.72 0.42 62 1013.4
20260506180051 58 20 4.0 12.0 0.00 0.72 0.42 58 1013.4
20260506174551 58 29 3.0 12.0 0.00 0.72 0.42 55 1013.6
20260506173119 58 13 6.0 12.0 0.00 0.72 0.42 58 1013.8
20260506171602 58 30 4.0 11.0 0.00 0.72 0.42 58 1013.9
20260506170104 58 360 3.0 10.0 0.00 0.72 0.42 62 1014.0
20260506164600 57 50 6.0 10.0 0.00 0.72 0.42 63 1014.1
20260506163055 57 32 4.0 10.0 0.00 0.72 0.42 64 1014.1
20260506161552 56 40 4.0 11.0 0.00 0.72 0.42 67 1013.9
20260506160108 55 350 6.0 11.0 0.00 0.72 0.42 68 1013.8
20260506154557 54 37 2.0 9.0 0.00 0.72 0.42 70 1013.8
20260506153053 54 10 7.0 12.0 0.00 0.72 0.42 71 1013.7
20260506151550 53 28 4.0 11.0 0.00 0.72 0.42 73 1013.7
20260506150051 53 1 5.0 9.0 0.00 0.72 0.42 72 1013.4
20260506144554 53 328 2.0 9.0 0.00 0.72 0.42 76 1013.0
20260506143052 52 32 5.0 9.0 0.00 0.72 0.42 73 1013.4
20260506141555 52 343 3.0 7.0 0.00 0.72 0.42 77 1012.7
20260506140055 51 1 7.0 11.0 0.00 0.72 0.42 77 1012.4
20260506134548 50 1 2.0 9.0 0.00 0.72 0.42 82 1012.1
20260506133108 49 15 3.0 5.0 0.00 0.72 0.42 83 1012.3
20260506131605 48 32 2.0 6.0 0.00 0.72 0.42 85 1012.5
20260506130057 47 334 1.0 7.0 0.00 0.72 0.42 86 1012.1
20260506124555 46 360 1.0 5.0 0.00 0.72 0.42 88 1011.8
20260506123057 46 6 2.0 5.0 0.00 0.72 0.42 88 1012.0
20260506121554 45 8 2.0 4.0 0.00 0.72 0.42 89 1011.5
20260506120050 45 360 2.0 5.0 0.00 0.72 0.42 90 1011.2
20260506114553 45 334 1.0 5.0 0.00 0.72 0.42 91 1011.1
20260506113050 44 325 1.0 5.0 0.00 0.72 0.42 91 1011.1
20260506111552 44 332 2.0 7.0 0.00 0.72 0.42 91 1010.6
20260506110047 45 53 2.0 6.0 0.00 0.72 0.42 92 1010.2
20260506104550 45 2 1.0 5.0 0.00 0.72 0.42 92 1010.2
20260506103046 45 11 2.0 4.0 0.00 0.72 0.42 92 1009.7
20260506101549 45 303 2.0 5.0 0.00 0.72 0.42 92 1009.6
20260506100049 45 27 5.0 8.0 0.00 0.72 0.42 92 1009.1
20260506094616 45 43 3.0 9.0 0.00 0.72 0.42 91 1009.2
20260506093048 45 29 4.0 11.0 0.01 0.72 0.42 91 1009.2
20260506091550 46 28 5.0 14.0 0.01 0.72 0.42 92 1009.2
20260506090048 46 359 6.0 13.0 0.01 0.72 0.42 92 1008.9
20260506084548 47 356 5.0 12.0 0.02 0.72 0.42 92 1008.6
20260506083053 47 14 5.0 12.0 0.01 0.71 0.41 92 1008.3
20260506081548 47 360 6.0 13.0 0.02 0.71 0.41 92 1008.1
20260506073050 49 7 6.0 10.0 0.14 0.70 0.40 93 1007.7
20260506071549 50 1 4.0 10.0 0.16 0.69 0.39 92 1007.4
20260506061549 57 360 1.0 5.0 0.08 0.52 0.23 93 1006.7
20260506060104 57 360 2.0 9.0 0.08 0.47 0.17 93 1007.0
20260506044554 58 179 4.0 8.0 0.02 0.32 0.02 93 1007.4
20260506043049 58 360 4.0 9.0 0.01 0.31 0.01 93 1007.3
20260506041549 58 219 5.0 10.0 0.01 0.31 0.01 93 1007.3
20260506040049 58 360 5.0 9.0 0.00 0.30 0.00 94 1007.4
20260506034544 58 211 0.0 1.0 0.00 0.30 0.30 94 1007.7
20260506033047 58 0 0.0 3.0 0.01 0.30 0.30 94 1007.7
20260506031551 58 0 0.0 0.0 0.01 0.30 0.30 93 1007.9
20260506030053 58 0 0.0 2.0 0.02 0.30 0.30 93 1007.8
20260506024558 58 153 3.0 5.0 0.02 0.30 0.30 93 1007.8
20260506023047 59 0 0.0 2.0 0.01 0.29 0.29 92 1008.4
20260506021552 59 0 0.0 0.0 0.01 0.29 0.29 92 1008.2
20260506020052 59 0 0.0 0.0 0.01 0.28 0.28 92 1008.1
20260506014552 59 0 0.0 0.0 0.01 0.28 0.28 91 1007.8
20260506013052 59 0 0.0 5.0 0.01 0.28 0.28 91 1007.9
20260506011549 59 360 2.0 7.0 0.01 0.28 0.28 91 1008.0
20260506010050 59 360 3.0 6.0 0.00 0.27 0.27 91 1007.6
20260506004555 60 360 2.0 7.0 0.01 0.27 0.27 91 1007.6
20260506003057 60 360 3.0 8.0 0.02 0.27 0.27 90 1007.6
20260506001552 60 360 5.0 10.0 0.05 0.27 0.27 91 1007.8
20260506000052 60 360 3.0 9.0 0.05 0.27 0.27 92 1007.9
20260505234558 60 177 3.0 5.0 0.04 0.26 0.26 93 1007.7
20260505233045 60 0 0.0 0.0 0.03 0.25 0.25 92 1008.0
20260505231559 60 0 0.0 0.0 0.00 0.22 0.22 92 1008.2